Change the Weather History Date:

Tuesday, November 11, 2014

  Actual Average Record
Temperature  
Mean Temperature 15 °F 32 °F  
Max Temperature 20 °F 42 °F 68 °F (1937)
Min Temperature 9 °F 21 °F -8 °F (1966)
Degree Days  
Heating Degree Days 50 33  
Month to date heating degree days 309 334  
Since 1 July heating degree days 1071 1225  
Cooling Degree Days 0 0  
Month to date cooling degree days 0 0  
Year to date cooling degree days 342 525  
Moisture  
Dew Point 8 °F    
Average Humidity 69    
Maximum Humidity 76    
Minimum Humidity 61    
Precipitation  
Precipitation T in 0.03 in 0.50 in (1915)
Month to date precipitation 0.46 0.32  
Year to date precipitation 17.35 20.79  
Snow  
Snow T in - - ()
Month to date snowfall 5.5  
Since 1 July snowfall 5.5  
Snow Depth 5.00 in    
Sea Level Pressure  
Sea Level Pressure 30.40 in    
Wind  
Wind Speed 16 mph (NW)    
Max Wind Speed 23 mph    
Max Gust Speed 29 mph    
Visibility 9 miles    
Events Snow    
T = Trace of Precipitation, MM = Missing Value Source: NWS Daily Summary

Daily Weather History Graph

Daily Weather History Graph

Search for Another Location

Airport or City:

Trip Planner

Search our weather history database for the weather conditions in past years. The results will help you decide how hot, cold, wet, or windy it might be!

Date:

Astronomy

Nov. 11, 2014 Rise Set
Actual Time 7:27 AM CST 5:07 PM CST
Civil Twilight 6:55 AM CST 5:39 PM CST
Nautical Twilight 6:19 AM CST 6:15 PM CST
Astronomical Twilight 5:44 AM CST 6:49 PM CST
Moon 9:32 PM CST (11/11) 11:35 AM CST (11/11)
Length of Visible Light 10h 44m
Length of Day
9h 40m
Waning Gibbous, 76% of the Moon is Illuminated
Nov 11
Waning Gibbous
Nov 14
Last Quarter
Nov 22
New
Nov 29
First Quarter
Dec 6
Full

Hourly Weather History & Observations

Time (CST) Temp. Windchill Dew Point Humidity Pressure Visibility Wind Dir Wind Speed Gust Speed Precip Events Conditions
12:53 AM 15.1 °F -0.1 °F 6.1 °F 68% 30.31 in 10.0 mi NNW 15.0 mph - N/A   Clear
1:53 AM 15.1 °F -1.1 °F 7.0 °F 70% 30.31 in 10.0 mi NNW 17.3 mph - N/A   Clear
2:49 AM 14.0 °F -2.0 °F 6.8 °F 73% 30.26 in 10.0 mi NW 16.1 mph - N/A   Mostly Cloudy
2:53 AM 14.0 °F -1.4 °F 6.1 °F 71% 30.34 in 10.0 mi NW 15.0 mph - N/A   Mostly Cloudy
3:53 AM 14.0 °F -2.5 °F 6.1 °F 71% 30.34 in 10.0 mi NW 17.3 mph - N/A   Overcast
4:53 AM 12.9 °F -3.4 °F 6.1 °F 74% 30.34 in 10.0 mi NW 16.1 mph - N/A   Overcast
5:53 AM 15.8 °F 0.9 °F 8.6 °F 73% 30.28 in 10.0 mi NW 15.0 mph - N/A   Overcast
6:53 AM 15.1 °F -0.6 °F 8.1 °F 74% 30.36 in 10.0 mi NW 16.1 mph - N/A   Overcast
7:53 AM 16.0 °F 1.1 °F 8.1 °F 71% 30.38 in 10.0 mi NW 15.0 mph - N/A   Overcast
8:53 AM 17.1 °F 1.5 °F 9.0 °F 71% 30.39 in 10.0 mi NW 17.3 mph - N/A   Overcast
9:53 AM 18.0 °F 2.6 °F 9.0 °F 68% 30.40 in 10.0 mi NW 17.3 mph - N/A   Overcast
10:53 AM 19.0 °F 3.6 °F 10.0 °F 68% 30.41 in 10.0 mi NW 18.4 mph - N/A   Overcast
11:53 AM 19.9 °F 4.8 °F 8.1 °F 60% 30.42 in 10.0 mi NNW 18.4 mph - N/A   Overcast
12:53 PM 19.0 °F 3.6 °F 10.9 °F 71% 30.42 in 3.0 mi WNW 18.4 mph - 0.00 in Snow Light Snow
1:06 PM 19.0 °F 3.2 °F 10.9 °F 71% 30.34 in 2.0 mi WNW 19.6 mph - 0.00 in Snow Light Snow
1:22 PM 19.0 °F 4.0 °F 10.9 °F 71% 30.34 in 6.0 mi NW 17.3 mph - 0.00 in   Haze
1:53 PM 19.0 °F 3.2 °F 10.0 °F 68% 30.42 in 10.0 mi NW 19.6 mph - 0.00 in   Overcast
2:53 PM 19.0 °F 4.0 °F 9.0 °F 65% 30.43 in 10.0 mi WNW 17.3 mph - N/A   Overcast
3:53 PM 19.0 °F 4.0 °F 10.0 °F 68% 30.44 in 10.0 mi WNW 17.3 mph - N/A   Overcast
4:53 PM 18.0 °F 2.2 °F 9.0 °F 68% 30.45 in 10.0 mi WNW 18.4 mph - N/A   Overcast
5:53 PM 16.0 °F 1.7 °F 7.0 °F 68% 30.46 in 10.0 mi WNW 13.8 mph - N/A   Overcast
6:53 PM 15.1 °F -0.6 °F 6.1 °F 68% 30.48 in 10.0 mi WNW 16.1 mph - N/A   Overcast
7:53 PM 14.0 °F -2.0 °F 6.1 °F 71% 30.48 in 10.0 mi WNW 16.1 mph - N/A   Overcast
8:53 PM 14.0 °F -0.8 °F 6.1 °F 71% 30.48 in 10.0 mi WNW 13.8 mph - N/A   Overcast
9:53 PM 12.0 °F -4.0 °F 5.0 °F 73% 30.48 in 10.0 mi WNW 15.0 mph - N/A   Scattered Clouds
10:53 PM 10.9 °F -4.7 °F 3.9 °F 73% 30.48 in 10.0 mi WNW 13.8 mph - N/A   Clear
11:53 PM 10.0 °F -5.2 °F 3.9 °F 76% 30.48 in 10.0 mi WNW 12.7 mph - N/A   Clear